Back to catalog

FREGAT DEB

AliveUNKNOWN
NORAD 46260·DEBRIS·🇷🇺 Russia

Launched Jul 18, 2011 from Baikonur Cosmodrome

Loading…

Next Passes (next 24 hours)

TLE

FreshSource: Space-Track

Epoch: Sep 14, 2026, 09:02 UTC

1 46260U 11037KW  26257.37641114  .00008859  00000-0  74922-1 0  9994
2 46260  51.2830 243.4652 1393187 218.2388 131.1111 10.76272073 61684

Track FREGAT DEB in real time with AllMySat

Download on the App Store